FW3233 Weather Reports


Display with metric or nautical units.
time (UTC)temp
F
wind
direction
speed
MPH
gust
MPH
rain 1hr
in
rain 24hr
in
rain mn
in
humidity
%
barometer
mb
20260510105109 61 113 0.0 0.0 0.00 0.00 0.00 92 1014.8
20260510104607 61 113 0.0 0.0 0.00 0.00 0.00 91 1015.0
20260510104103 61 113 0.0 0.0 0.00 0.00 0.00 91 1014.7
20260510103600 60 113 0.0 0.0 0.00 0.00 0.00 91 1014.8
20260510103056 61 113 0.0 0.0 0.00 0.00 0.00 91 1014.7
20260510102551 61 113 0.0 0.0 0.00 0.00 0.00 90 1014.9
20260510102048 61 113 0.0 0.0 0.00 0.00 0.00 90 1014.7
20260510101546 61 113 0.0 0.0 0.00 0.00 0.00 89 1014.9
20260510101044 61 113 0.0 0.0 0.00 0.00 0.00 89 1014.9
20260510100540 60 113 0.0 0.0 0.00 0.00 0.00 89 1014.8
20260510100037 60 113 0.0 0.0 0.00 0.00 0.00 89 1014.8
20260510095533 60 113 0.0 0.0 0.00 0.00 0.00 89 1014.7
20260510095032 61 113 0.0 0.0 0.00 0.00 0.00 89 1014.6
20260510094527 60 113 0.0 0.0 0.00 0.00 0.00 89 1014.7
20260510094023 60 113 0.0 0.0 0.00 0.00 0.00 90 1014.4
20260510093519 60 113 0.0 0.0 0.00 0.00 0.00 91 1014.5
20260510093016 60 113 0.0 0.0 0.00 0.00 0.00 89 1014.6
20260510092513 60 113 0.0 0.0 0.00 0.00 0.00 90 1014.5
20260510092012 60 113 0.0 0.0 0.00 0.00 0.00 91 1014.6
20260510091509 60 113 0.0 0.0 0.00 0.00 0.00 90 1014.5
20260510091005 60 113 0.0 0.0 0.00 0.00 0.00 90 1014.3
20260510090503 60 113 0.0 0.0 0.00 0.00 0.00 89 1014.2
20260510085958 60 113 0.0 0.0 0.00 0.00 0.00 89 1014.1
20260510085453 60 113 0.0 0.0 0.00 0.00 0.00 89 1014.2
20260510084949 60 113 0.0 0.0 0.00 0.00 0.00 89 1013.9
20260510084446 60 113 0.0 0.0 0.00 0.00 0.00 89 1013.9
20260510083943 60 113 0.0 0.0 0.00 0.00 0.00 88 1013.7
20260510083439 60 113 0.0 0.0 0.00 0.00 0.00 88 1013.7
20260510082935 60 113 0.0 0.0 0.00 0.00 0.00 86 1013.6
20260510082433 60 113 0.0 0.0 0.00 0.00 0.00 87 1013.6
20260510081932 60 113 0.0 0.0 0.00 0.00 0.00 87 1013.6
20260510081428 60 113 0.0 0.0 0.00 0.00 0.00 88 1013.5
20260510080924 60 113 0.0 0.0 0.00 0.00 0.00 88 1013.7
20260510080423 60 113 0.0 0.0 0.00 0.00 0.00 89 1013.7
20260510075920 60 113 0.0 0.0 0.00 0.00 0.00 89 1013.8
20260510075418 60 113 0.0 0.0 0.00 0.00 0.00 89 1013.6
20260510074915 60 113 0.0 0.0 0.00 0.00 0.00 89 1013.7
20260510074412 60 113 0.0 0.0 0.00 0.00 0.00 89 1013.6
20260510073908 60 113 0.0 0.0 0.00 0.00 0.00 89 1013.5
20260510073404 61 113 0.0 0.0 0.00 0.00 0.00 87 1013.6
20260510072900 61 113 0.0 0.0 0.00 0.00 0.00 87 1013.7
20260510072357 61 113 0.0 0.0 0.00 0.00 0.00 87 1013.8
20260510071853 61 113 0.0 0.0 0.00 0.00 0.00 86 1013.7
20260510071349 60 113 0.0 0.0 0.00 0.00 0.00 87 1013.7
20260510070848 61 113 0.0 0.0 0.00 0.00 0.00 87 1013.4
20260510070344 61 113 0.0 0.0 0.00 0.00 0.00 86 1013.5
20260510065839 61 113 0.0 0.0 0.00 0.00 0.00 86 1013.3
20260510065336 61 113 0.0 0.0 0.00 0.00 0.00 85 1013.5
20260510064832 61 113 0.0 0.0 0.00 0.00 0.00 85 1013.5
20260510064331 61 114 0.0 0.0 0.00 0.00 0.00 84 1013.5
20260510063826 61 113 0.0 0.0 0.00 0.00 0.00 84 1013.6
20260510063323 62 113 0.0 0.0 0.00 0.00 0.00 83 1013.7
20260510062820 62 114 0.0 0.0 0.00 0.00 0.00 81 1013.5
20260510062315 62 114 0.0 0.0 0.00 0.00 0.00 81 1013.4
20260510061805 62 114 0.0 0.0 0.00 0.00 0.00 81 1013.5
20260510061302 62 114 0.0 0.0 0.00 0.00 0.00 81 1013.8
20260510060758 62 113 0.0 0.0 0.00 0.00 0.00 81 1013.6
20260510060250 62 114 0.0 0.0 0.00 0.00 0.00 80 1013.6
20260510055746 62 114 0.0 0.0 0.00 0.00 0.00 77 1013.6
20260510055245 62 114 0.0 0.0 0.00 0.00 0.00 80 1013.8
20260510054744 62 114 0.0 0.0 0.00 0.00 0.00 81 1013.6
20260510054241 62 114 0.0 0.0 0.00 0.00 0.00 80 1013.4
20260510053740 63 114 0.0 0.0 0.00 0.00 0.00 79 1013.5
20260510053236 63 114 0.0 0.0 0.00 0.00 0.00 77 1013.4
20260510052732 64 114 0.0 0.0 0.00 0.00 0.00 77 1013.4
20260510052229 64 114 0.0 0.0 0.00 0.00 0.00 76 1013.1
20260510051725 63 114 0.0 0.0 0.00 0.00 0.00 77 1013.3
20260510051221 63 113 0.0 0.0 0.00 0.00 0.00 77 1013.0
20260510050718 64 113 0.0 0.0 0.00 0.00 0.00 76 1013.0
20260510050216 64 113 0.0 0.0 0.00 0.00 0.00 73 1013.1
20260510045712 64 114 0.0 0.0 0.00 0.00 0.00 69 1012.9
20260510045209 64 114 0.0 0.0 0.00 0.00 0.00 70 1013.0
20260510044705 65 114 0.0 0.0 0.00 0.00 0.00 72 1012.9
20260510044203 65 113 0.0 0.0 0.00 0.00 0.00 69 1013.1
20260510043658 66 114 0.0 0.0 0.00 0.00 0.00 68 1012.9
20260510043155 66 114 0.0 0.0 0.00 0.00 0.00 66 1012.8
20260510042652 66 114 0.0 0.0 0.00 0.00 0.00 67 1012.8
20260510042148 66 114 0.0 0.0 0.00 0.00 0.00 65 1012.9
20260510041646 66 114 0.0 0.0 0.00 0.00 0.00 68 1012.8
20260510041143 66 114 0.0 0.0 0.00 0.00 0.00 65 1012.6
20260510040640 67 114 0.0 0.0 0.00 0.00 0.00 64 1012.7
20260510040137 66 114 0.0 0.0 0.00 0.00 0.00 64 1012.9
20260510035632 67 114 0.0 0.0 0.00 0.00 0.00 64 1012.8
20260510035127 67 114 0.0 0.0 0.00 0.00 0.00 63 1012.9
20260510034625 67 114 0.0 0.0 0.00 0.00 0.00 63 1013.1
20260510034121 67 114 0.0 0.0 0.00 0.00 0.00 62 1012.8
20260510033618 67 114 0.0 0.0 0.00 0.00 0.00 61 1012.8
20260510033116 67 114 0.0 0.0 0.00 0.00 0.00 62 1012.9
20260510032612 67 114 0.0 0.0 0.00 0.00 0.00 62 1012.9
20260510032107 67 114 0.0 0.0 0.00 0.00 0.00 63 1012.7
20260510031602 67 113 0.0 0.0 0.00 0.00 0.00 62 1012.6
20260510031059 68 114 0.0 0.0 0.00 0.00 0.00 61 1012.5
20260510030554 68 114 0.0 0.0 0.00 0.00 0.00 61 1012.5
20260510030051 68 114 0.0 0.0 0.00 0.00 0.00 61 1012.7
20260510025543 68 114 0.0 0.0 0.00 0.00 0.00 61 1012.6
20260510025040 68 114 0.0 0.0 0.00 0.00 0.00 61 1012.5
20260510024536 69 114 0.0 0.0 0.00 0.00 0.00 60 1012.4
20260510024032 69 114 0.0 0.0 0.00 0.00 0.00 61 1012.4
20260510023523 69 114 0.0 0.0 0.00 0.00 0.00 60 1012.5
20260510023021 69 114 0.0 0.0 0.00 0.00 0.00 61 1012.3
20260510022520 69 114 0.0 0.0 0.00 0.00 0.00 61 1012.2
20260510022019 69 114 0.0 0.0 0.00 0.00 0.00 62 1012.2
20260510021516 69 113 0.0 0.0 0.00 0.00 0.00 62 1012.3
20260510021014 69 114 0.0 0.0 0.00 0.00 0.00 61 1012.1
20260510020508 70 113 0.0 0.0 0.00 0.00 0.00 61 1011.8
20260510020005 70 113 0.0 0.0 0.00 0.00 0.00 60 1012.0
20260510015500 70 113 0.0 0.0 0.00 0.00 0.00 62 1011.9
20260510014956 70 113 0.0 0.0 0.00 0.00 0.00 61 1011.9
20260510014454 70 113 0.0 0.0 0.00 0.00 0.00 63 1011.8
20260510013950 71 113 0.0 0.0 0.00 0.00 0.00 62 1011.8
20260510013445 71 113 0.0 0.0 0.00 0.00 0.00 62 1011.8
20260510012941 71 113 0.0 0.0 0.00 0.00 0.00 62 1011.7
20260510012436 71 113 0.0 0.0 0.00 0.00 0.00 62 1011.8
20260510011931 71 113 0.0 0.0 0.00 0.00 0.00 62 1011.6
20260510011425 72 113 0.0 0.0 0.00 0.00 0.00 61 1011.5
20260510010921 72 113 0.0 0.0 0.00 0.00 0.00 60 1011.5
20260510010419 73 113 0.0 0.0 0.00 0.00 0.00 59 1011.4
20260510005917 73 113 0.0 0.0 0.00 0.00 0.00 59 1011.5
20260510005412 73 113 0.0 0.0 0.00 0.00 0.00 58 1011.4
20260510004909 74 113 0.0 0.0 0.00 0.00 0.00 57 1011.3
20260510004407 74 112 0.0 0.0 0.00 0.00 0.00 56 1011.4
20260510003904 74 112 0.0 0.0 0.00 0.00 0.00 55 1011.2
20260510003401 74 112 0.0 0.0 0.00 0.00 0.00 55 1011.2
20260510002900 75 112 0.0 0.0 0.00 0.00 0.00 54 1011.1
20260510002358 75 112 0.0 0.0 0.00 0.00 0.00 53 1011.1
20260510001854 75 112 0.0 0.0 0.00 0.00 0.00 53 1010.9
20260510001352 76 112 0.0 0.0 0.00 0.00 0.00 52 1011.0
20260510000848 76 111 0.0 2.0 0.00 0.00 0.00 52 1011.0
20260510000348 77 263 0.0 0.0 0.00 0.00 0.00 51 1011.1
20260509235842 77 263 0.0 1.0 0.00 0.00 0.00 52 1010.9
20260509235339 77 259 0.0 1.0 0.00 0.00 0.00 52 1010.8
20260509234835 78 259 0.0 0.0 0.00 0.00 0.00 51 1010.8
20260509234332 78 259 0.0 1.0 0.00 0.00 0.00 51 1010.7
20260509233830 78 262 0.0 1.0 0.00 0.00 0.00 49 1010.9
20260509233328 78 269 0.0 0.0 0.00 0.00 0.00 49 1010.5
20260509232822 78 269 0.0 0.0 0.00 0.00 0.00 49 1010.6
20260509232321 79 272 0.0 1.0 0.00 0.00 0.00 47 1010.7
20260509231817 79 286 1.0 1.0 0.00 0.00 0.00 48 1010.5
20260509231314 79 286 1.0 2.0 0.00 0.00 0.00 44 1010.5
20260509230812 80 193 1.0 2.0 0.00 0.00 0.00 43 1010.6
20260509230308 80 208 0.0 1.0 0.00 0.00 0.00 43 1010.5
20260509225803 80 315 0.0 0.0 0.00 0.00 0.00 44 1010.7
20260509225300 81 71 0.0 2.0 0.00 0.00 0.00 43 1010.5
20260509224756 82 307 0.0 1.0 0.00 0.00 0.00 42 1010.5
20260509224253 82 122 1.0 1.0 0.00 0.00 0.00 43 1010.2
20260509223750 82 179 1.0 3.0 0.00 0.00 0.00 42 1010.4
20260509223247 82 158 0.0 1.0 0.00 0.00 0.00 42 1010.4
20260509222743 84 130 1.0 1.0 0.00 0.00 0.00 42 1010.3
20260509222239 84 176 0.0 2.0 0.00 0.00 0.00 45 1010.2
20260509221734 83 229 0.0 2.0 0.00 0.00 0.00 45 1010.3
20260509221231 82 180 1.0 6.0 0.00 0.00 0.00 44 1010.2
20260509220727 83 329 1.0 1.0 0.00 0.00 0.00 45 1010.2
20260509220224 83 111 0.0 2.0 0.00 0.00 0.00 45 1010.2
20260509215719 82 263 1.0 3.0 0.00 0.00 0.00 47 1010.3
20260509215216 83 248 1.0 2.0 0.00 0.00 0.00 46 1010.1
20260509214713 84 235 0.0 3.0 0.00 0.00 0.00 47 1010.4
20260509214210 84 224 0.0 1.0 0.00 0.00 0.00 47 1010.3
20260509213707 83 304 0.0 2.0 0.00 0.00 0.00 47 1010.2
20260509213202 82 258 1.0 3.0 0.00 0.00 0.00 49 1010.2
20260509212701 84 218 0.0 2.0 0.00 0.00 0.00 47 1010.4
20260509212157 84 210 0.0 2.0 0.00 0.00 0.00 48 1010.4
20260509211653 84 183 0.0 2.0 0.00 0.00 0.00 45 1010.5
20260509211150 85 179 0.0 1.0 0.00 0.00 0.00 45 1010.4
20260509210646 85 307 0.0 2.0 0.00 0.00 0.00 42 1010.5
20260509210138 85 158 1.0 3.0 0.00 0.00 0.00 44 1010.6
20260509205633 85 325 1.0 2.0 0.00 0.00 0.00 43 1010.7
20260509205127 85 266 0.0 2.0 0.00 0.00 0.00 45 1010.7
20260509204624 84 182 0.0 3.0 0.00 0.00 0.00 47 1010.7
20260509204120 84 213 1.0 4.0 0.00 0.00 0.00 46 1010.8
20260509203616 84 194 1.0 2.0 0.00 0.00 0.00 43 1010.8
20260509203114 84 100 0.0 3.0 0.00 0.00 0.00 44 1010.9
20260509202609 84 199 0.0 2.0 0.00 0.00 0.00 43 1010.9
20260509202104 85 220 0.0 1.0 0.00 0.00 0.00 43 1011.2
20260509201605 84 215 0.0 1.0 0.00 0.00 0.00 41 1011.0
20260509201103 84 307 2.0 4.0 0.00 0.00 0.00 40 1011.1
20260509200557 84 204 1.0 3.0 0.00 0.00 0.00 39 1011.0
20260509200053 84 185 0.0 1.0 0.00 0.00 0.00 42 1011.0
20260509195549 85 142 1.0 1.0 0.00 0.00 0.00 41 1011.1
20260509195044 84 246 0.0 1.0 0.00 0.00 0.00 42 1011.2
20260509194538 84 234 1.0 2.0 0.00 0.00 0.00 46 1011.0
20260509194036 84 120 1.0 1.0 0.00 0.00 0.00 47 1011.1
20260509193531 82 340 1.0 2.0 0.00 0.00 0.00 47 1011.2
20260509193028 83 199 0.0 1.0 0.00 0.00 0.00 47 1011.1
20260509192524 85 200 1.0 3.0 0.00 0.00 0.00 50 1010.9
20260509192019 84 190 0.0 0.0 0.00 0.00 0.00 50 1011.3
20260509191514 83 152 0.0 2.0 0.00 0.00 0.00 50 1011.2
20260509191010 82 199 1.0 4.0 0.00 0.00 0.00 51 1011.1
20260509190507 83 213 1.0 1.0 0.00 0.00 0.00 51 1011.3
20260509190006 84 75 1.0 3.0 0.00 0.00 0.00 52 1011.3
20260509185503 84 151 1.0 3.0 0.00 0.00 0.00 50 1011.3
20260509184958 84 75 1.0 2.0 0.00 0.00 0.00 50 1011.2
20260509184457 82 195 0.0 1.0 0.00 0.00 0.00 52 1011.4
20260509183952 82 199 1.0 2.0 0.00 0.00 0.00 52 1011.2
20260509183447 82 151 1.0 3.0 0.00 0.00 0.00 53 1011.5
20260509182944 83 184 0.0 2.0 0.00 0.00 0.00 53 1011.7
20260509182440 83 206 0.0 1.0 0.00 0.00 0.00 52 1011.7
20260509181937 83 203 0.0 2.0 0.00 0.00 0.00 50 1011.8
20260509181435 85 113 1.0 1.0 0.00 0.00 0.00 49 1011.6
20260509180933 83 303 1.0 1.0 0.00 0.00 0.00 54 1011.6
20260509180427 82 192 1.0 3.0 0.00 0.00 0.00 50 1011.7
20260509175924 82 205 1.0 1.0 0.00 0.00 0.00 51 1011.5
20260509175415 81 28 1.0 1.0 0.00 0.00 0.00 51 1011.7
20260509174911 83 337 2.0 3.0 0.00 0.00 0.00 48 1011.9
20260509174407 83 152 0.0 2.0 0.00 0.00 0.00 49 1011.9
20260509173903 83 108 0.0 1.0 0.00 0.00 0.00 48 1011.9
20260509173357 82 181 0.0 2.0 0.00 0.00 0.00 50 1012.0
20260509172854 81 257 0.0 1.0 0.00 0.00 0.00 53 1011.9
20260509172351 83 292 3.0 3.0 0.00 0.00 0.00 48 1011.9
20260509171847 82 93 1.0 2.0 0.00 0.00 0.00 50 1011.9
20260509171343 82 181 0.0 2.0 0.00 0.00 0.00 50 1011.8
20260509170840 83 39 1.0 2.0 0.00 0.00 0.00 48 1012.0
20260509170336 81 110 0.0 2.0 0.00 0.00 0.00 46 1011.9
20260509165830 83 318 1.0 2.0 0.00 0.00 0.00 50 1011.8
20260509165325 81 69 0.0 1.0 0.00 0.00 0.00 54 1012.0
20260509164821 81 51 0.0 2.0 0.00 0.00 0.00 53 1011.8
20260509164318 81 7 2.0 3.0 0.00 0.00 0.00 55 1012.0
20260509163814 81 58 0.0 2.0 0.00 0.00 0.00 57 1011.8
20260509163311 81 6 1.0 2.0 0.00 0.00 0.00 55 1011.8
20260509162810 81 2 1.0 2.0 0.00 0.00 0.00 59 1011.8
20260509162306 81 64 1.0 2.0 0.00 0.00 0.00 55 1011.7
20260509161759 80 92 1.0 2.0 0.00 0.00 0.00 60 1011.7
20260509161255 79 14 2.0 6.0 0.00 0.00 0.00 59 1011.9
20260509160751 80 12 1.0 2.0 0.00 0.00 0.00 60 1011.8
20260509160247 80 7 1.0 2.0 0.00 0.00 0.00 60 1011.9
20260509155743 79 112 2.0 3.0 0.00 0.00 0.00 61 1011.7
20260509155240 78 134 0.0 2.0 0.00 0.00 0.00 61 1011.9
20260509154735 78 15 2.0 3.0 0.00 0.00 0.00 62 1011.7
20260509154233 0 0.0 0.0 0.00 0.00 0.00 1011.7
20260509153730 0 0.0 0.0 0.00 0.00 0.00 1011.8
20260509153226 0 0.0 0.0 0.00 0.00 0.00 1011.7
20260509152722 73 182 0.0 0.0 0.00 0.00 0.00 72 1011.8
20260509152219 73 182 0.0 0.0 0.00 0.00 0.00 72 1011.7
20260509151716 73 182 0.0 0.0 0.00 0.00 0.00 72 1011.7
20260509151213 73 182 0.0 0.0 0.00 0.00 0.00 72 1011.7
20260509150710 73 182 0.0 0.0 0.00 0.00 0.00 72 1012.0
20260509150209 73 182 0.0 0.0 0.00 0.00 0.00 72 1011.8
20260509145704 73 182 0.0 0.0 0.00 0.00 0.00 72 1012.0
20260509145200 73 182 0.0 0.0 0.00 0.00 0.00 72 1012.0
20260509144656 73 182 0.0 0.0 0.00 0.00 0.00 72 1012.1
20260509144154 73 182 0.0 0.0 0.00 0.00 0.00 72 1012.2
20260509143651 73 182 0.0 0.0 0.00 0.00 0.00 72 1012.2
20260509143148 73 182 0.0 1.0 0.00 0.00 0.00 72 1012.2
20260509142644 72 179 1.0 1.0 0.00 0.00 0.00 73 1012.2
20260509142141 72 209 0.0 1.0 0.00 0.00 0.00 75 1012.2
20260509141636 72 144 0.0 0.0 0.00 0.00 0.00 74 1012.2
20260509141133 72 204 0.0 1.0 0.00 0.00 0.00 75 1012.3
20260509140630 70 172 1.0 1.0 0.00 0.00 0.00 77 1012.1
20260509140128 71 204 1.0 3.0 0.00 0.00 0.00 75 1012.1
20260509135625 70 193 0.0 1.0 0.00 0.00 0.00 77 1012.1
20260509135123 70 191 1.0 1.0 0.00 0.00 0.00 77 1012.2
20260509134619 69 184 0.0 0.0 0.00 0.00 0.00 77 1012.0
20260509134117 68 176 1.0 1.0 0.00 0.00 0.00 80 1011.8
20260509133614 68 176 1.0 1.0 0.00 0.00 0.00 80 1011.7
20260509133111 68 187 0.0 0.0 0.00 0.00 0.00 80 1011.8
20260509132609 68 187 0.0 1.0 0.00 0.00 0.00 81 1011.8
20260509132107 67 187 0.0 0.0 0.00 0.00 0.00 81 1011.8
20260509131603 66 186 0.0 1.0 0.00 0.00 0.00 84 1011.8
20260509131100 65 182 0.0 1.0 0.00 0.00 0.00 84 1011.8
20260509130556 66 174 1.0 2.0 0.00 0.00 0.00 84 1011.8
20260509130053 66 180 0.0 0.0 0.00 0.00 0.00 84 1011.7
20260509125549 65 180 0.0 1.0 0.00 0.00 0.00 85 1011.5
20260509125046 65 180 0.0 0.0 0.00 0.00 0.00 85 1011.5
20260509124542 64 180 0.0 1.0 0.00 0.00 0.00 87 1011.7
20260509124040 64 180 0.0 1.0 0.00 0.00 0.00 87 1011.5
20260509123537 63 180 0.0 0.0 0.00 0.00 0.00 87 1011.6
20260509123033 63 180 0.0 0.0 0.00 0.00 0.00 89 1011.5
20260509122530 62 180 0.0 0.0 0.00 0.00 0.00 90 1011.5
20260509122027 61 180 0.0 0.0 0.00 0.00 0.00 90 1011.3
20260509121523 60 180 0.0 1.0 0.00 0.00 0.00 92 1011.2
20260509121021 60 198 0.0 0.0 0.00 0.00 0.00 94 1011.3
20260509120519 59 196 0.0 0.0 0.00 0.00 0.00 94 1011.4
20260509120012 59 189 0.0 0.0 0.00 0.00 0.00 95 1011.1
20260509115509 58 190 0.0 0.0 0.00 0.00 0.00 96 1011.2
20260509115006 58 188 0.0 1.0 0.00 0.00 0.00 96 1011.0
20260509114504 58 187 0.0 0.0 0.00 0.00 0.00 96 1010.9
20260509114003 58 195 0.0 2.0 0.00 0.00 0.00 97 1010.8
20260509113500 58 196 1.0 2.0 0.00 0.00 0.00 97 1010.8
20260509112957 58 191 1.0 1.0 0.00 0.00 0.00 97 1010.7
20260509112454 58 200 1.0 2.0 0.00 0.00 0.00 97 1010.4
20260509111950 58 185 0.0 1.0 0.00 0.00 0.00 97 1010.4
20260509111448 58 182 0.0 0.0 0.00 0.00 0.00 96 1010.4
20260509110946 58 187 0.0 0.0 0.00 0.00 0.00 96 1010.4
20260509110442 58 190 0.0 0.0 0.00 0.00 0.00 96 1010.3
20260509105939 58 190 0.0 0.0 0.00 0.00 0.00 96 1010.5
20260509105438 59 190 0.0 0.0 0.00 0.00 0.00 96 1010.2